OBJECT M, 42836

Orbit data source: Space-Track

You're viewing an uncataloged RSO

Recently launched and/or uncataloged RSOs may have evolving metadata. Metadata may include the following, but is not limited to: Owner, Manufacturer, Bus, Motor, and Mission.

OBJECT M, 42836 is a satellite in SSO that was launched on Fri, 14 Jul 2017 UTC via a SOYUZ-2-1A launch vehicle from the Tyuratam Missile And Space Complex (TTMTR). Unknown objects in Earth's orbit typically refer to objects detected orbiting the Earth but have not yet been identified or cataloged. These objects could be anything from previously untracked satellites, spent rocket stages, debris from satellite collisions, or even natural meteoroids temporarily captured by Earth's gravity.

Loading next visibility...
Identifier
42836, 2017-042M
Orbit
SSO
Country
Flag of TBDTBD
Related business
None
Manufacturer
Unknown
Mission
Non-operational Civil Technology
Bus & Motor
Unknown
Mass
Unknown
Launch date (UTC)
2017-07-14 (9 years ago)
Launch vehicle
SOYUZ-2-1A
Launch site
Tyuratam Missile And Space Complex (TTMTR)
Object type
Unknown
Shape & HBR
Box + 2 Pan, 0.2 m
Radar Cross Section
0.092 m², Medium (>0.1 m² and < 1m²)

Expand to show TLE details & history
Last TLE update: 1 day ago

TLE from 1 day ago
0 OBJECT M
1 42836U 17042M   26236.20630347  .00003680  00000-0  23449-3 0  9993
2 42836  97.4325  36.0219 0003240 204.8235 155.2839 15.09340608497277
Epoch: 2026-08-24T04:57Z
TLE epoch observation values (Epoch: 2026-08-24T04:57:04.619Z)
Latitude
-0.00003°
Longitude
-10.73868°
Altitude
543.325 km
Speed
7.589 km/s
True Right ascension
02h 24m 05s
True Declination
0° 00' 00"
Sunlit
Object was in full shadow at epoch
Visualization orbit readout
Latitude
Unknown
Longitude
Unknown
Altitude
Unknown
Speed
Unknown
Apparent Right ascension
Unknown
Apparent Declination
Unknown
Sunlit
N/A
Visualization observer readout
Local Sidereal Time
01:51:07
Azimuth
Unknown
Elevation
Unknown
Doppler factor
Unknown
Orbital elements
Apogee altitude
537.435 km
Perigee altitude
532.955 km
Semi-major axis
6,913.332 km
Eccentricity
0.00032
Inclination
97.4325°
RAAN
36.0219°
Arg. of periapsis
204.8235°
True anomaly
155.29942°
Mean anomaly
155.2839°
Eccentric anomaly
155.29166°
Mean motion
3.77583 °/min
Orbital period
95.34 mins
BSTAR
0.00023449
Loading maneuver chart data...
Computing Atmospheric mass density...
Loading historical data...
Loading historical data...
Loading historical data...
Loading historical data...
Loading historical data...
Loading historical data...
Loading historical data...

Documentation

Showing up to 5 results
|